Cloud_Cover
29 5 5 3 4 55 70 58 100 100 100 100 100 100 100 100 100 100 100 100 100 100 100 100 100 100 100 100 100 100 100 100 100 100 100 100 100 100 100 100 100 100 100 100 100 100 100 100 100 100 100 100 100 100
30 10 5 51 5 5 58 83 5 62 100 100 100 100 100 100 100 100 100 100 100 100 100 100 100 100 100 100 100 100 100 100 100 100 100 100 100 100 100 100 100 100 100 100 100 100 100 100 100 100 100 100 100 100
1 5 4 5 23 72 99 17 6 19 36 100 100 100 100 100 100 100 100 100 100 100 100 100 100 100 100 100 100 100 100 100 100 100 100 100 100 100 100 100 100 100 100 100 100 100 100 100 100 100 100 100 100 100
3 24 79 63 88 98 100 100 100 100 100 100 98 49 5 37 94 100 100 100 100 100 100 100 100 100 100 100 100 100 100 100 100 100 100 100 100 100 100 100 100 100 100 100 100 100 100 100 100 100 100 100 100 100
75 79 51 100 100 100 100 99 100 100 100 100 100 100 100 100 97 100 100 100 100 100 100 97 100 100 100 100 100 100 100 100 100 100 100 100 100 100 100 100 100 100 100 100 100 100 100 100 100 100 100 100 100 100
5 5 5 4 5 7 14 80 100 100 100 100 100 100 100 100 100 100 100 100 100 100 100 100 100 100 100 100 100 100 100 100 100 100 100 83 70 100 100 100 37 100 100 100 100 100 100 100 100 100 100 100 100 100
5 11 12 6 4 5 4 3 5 9 78 22 66 4 23 100 100 100 98 99 100 100 100 99 96 100 100 100 100 100 100 100 99 100 90 82 64 100 88 89 48 91 100 100 100 100 100 100 100 100 100 100 100 100
82 34 17 20 74 61 6 5 5 5 4 63 94 27 5 96 100 100 100 100 100 100 94 74 25 5 32 94 100 96 97 90 94 100 100 100 96 100 93 11 100 100 100 100 100 100 100 96 100 100 100 100 100 100
100 100 95 24 54 79 67 92 65 13 41 30 6 66 6 84 100 100 98 100 87 77 60 27 40 5 12 47 72 94 96 100 33 66 98 94 100 75 39 100 100 100 100 66 73 100 83 57 82 75 99 100 100 100
100 100 100 100 100 95 77 45 77 96 52 87 7 33 76 99 98 91 100 100 100 100 100 100 24 17 12 57 83 77 100 81 87 21 100 100 33 90 100 100 100 100 87 8 95 100 95 48 10 92 100 100 100 100
41 12 19 61 66 96 100 80 94 100 98 100 100 71 100 100 99 78 86 89 72 98 94 100 24 57 95 83 92 100 100 97 100 28 92 67 82 100 100 100 100 46 5 5 66 60 92 68 17 6 50 99 100 100
46 32 5 5 5 90 100 94 82 100 100 96 42 95 100 98 100 100 76 66 89 37 81 82 100 100 100 97 99 99 94 86 80 80 100 76 100 100 100 98 60 43 44 49 5 28 29 52 57 93 100 100 100 100
5 5 5 5 5 12 100 100 100 100 100 100 100 100 100 88 100 100 70 100 94 91 97 98 88 100 100 100 100 99 100 87 76 100 99 96 100 86 90 100 100 100 100 100 91 41 33 77 93 100 100 100 100 100
75 5 5 5 5 5 18 100 100 100 100 100 100 100 99 88 99 95 71 77 89 97 100 100 100 100 100 100 100 100 100 100 99 98 55 98 99 100 100 100 100 100 85 65 70 84 84 77 75 94 100 100 100 99
6 27 13 5 5 4 5 17 100 100 100 100 93 92 100 84 95 85 98 100 100 100 100 100 100 100 100 100 100 100 100 100 81 82 100 100 100 80 82 100 100 100 100 100 100 100 100 100 100 100 94 95 95 86
5 6 26 46 37 52 30 5 5 68 100 100 99 99 91 98 100 100 100 100 100 100 100 100 100 100 100 100 100 100 100 100 100 100 100 100 100 96 79 95 83 78 94 92 78 41 28 42 12 21 33 58 53 34
5 40 100 99 83 12 5 5 5 15 61 92 93 98 100 100 100 100 100 100 100 100 100 100 100 100 100 100 100 100 100 100 100 100 100 100 100 100 100 77 13 6 8 6 26 6 5 5 61 87 60 5 5 5
5 5 23 81 91 55 64 48 38 51 100 98 63 95 64 82 91 81 87 84 74 97 99 98 99 100 100 100 100 100 100 100 100 100 100 100 100 98 63 42 38 5 5 5 5 5 45 13 53 10 5 5 6 5
5 12 40 51 79 89 73 83 61 83 94 92 80 82 78 78 66 59 72 46 74 79 96 100 100 100 100 100 100 100 100 99 100 100 100 100 43 5 5 7 5 5 5 5 8 36 38 17 32 31 55 72 99 75
31 35 24 51 67 66 57 37 24 6 96 81 75 85 91 71 52 62 41 19 64 8 41 91 100 100 98 72 63 65 71 65 100 100 22 33 20 5 5 5 23 5 55 86 81 90 97 87 28 52 75 98 100 96
55 71 52 26 39 37 32 79 48 97 84 32 65 76 74 32 38 68 38 14 11 100 83 92 64 14 6 35 20 5 28 75 100 100 100 95 5 99 100 93 90 97 100 100 100 93 75 77 8 5 38 6 6 6
31 27 28 17 7 5 28 20 55 19 45 42 10 25 83 29 91 67 77 44 100 53 45 65 49 54 48 50 11 56 79 100 97 92 98 99 94 87 83 89 100 97 100 96 98 100 100 92 64 99 100 100 82 63
23 12 17 6 5 5 5 12 5 19 5 25 51 18 36 99 37 34 74 99 66 44 67 65 13 65 88 93 64 78 100 100 100 96 100 100 99 100 100 100 100 100 100 100 82 100 100 99 98 100 100 100 100 98
58 30 34 12 11 9 13 37 22 6 10 15 22 46 20 70 20 32 99 93 15 24 44 63 94 97 100 100 100 100 100 100 100 100 100 100 100 100 99 99 99 100 100 100 100 100 100 100 100 99 85 100 100 100
28 48 15 53 23 3 23 13 18 7 61 92 45 36 11 40 63 64 82 6 35 44 63 88 100 100 100 100 100 100 100 100 100 100 100 100 100 100 100 100 100 100 100 100 100 100 100 100 100 97 95 99 99 82
43 87 46 83 77 26 84 13 57 71 58 47 67 62 68 18 17 5 77 76 76 86 100 100 100 100 100 100 100 100 100 100 100 100 100 100 100 100 100 100 100 100 100 100 100 98 92 94 97 92 95 100 99 99
46 72 84 80 54 75 36 25 8 12 51 33 56 47 21 34 46 69 100 96 93 100 100 100 100 100 100 100 100 100 100 100 100 100 100 100 100 100 100 100 100 100 100 100 100 100 100 99 100 99 100 100 89 83
98 88 80 54 18 33 43 58 49 33 47 60 93 62 26 6 40 99 99 67 70 99 96 100 100 100 100 100 100 100 100 100 100 100 100 100 100 100 100 100 100 100 100 90 100 100 100 100 100 100 100 96 91 90
43 42 72 45 51 33 52 26 23 53 34 20 18 36 46 95 100 98 62 50 58 79 95 96 100 100 100 100 100 100 100 100 100 100 100 100 100 100 100 100 100 100 90 96 96 100 100 100 95 98 87 94 100 100
75 88 75 92 63 20 20 50 34 32 34 83 61 49 55 51 97 93 76 67 87 98 98 100 100 100 100 100 100 100 100 100 100 100 100 100 100 100 100 100 100 100 100 100 83 72 99 99 98 100 100 100 100 100
71 73 82 98 76 45 52 60 77 79 79 84 79 73 67 75 98 99 78 96 81 70 90 100 96 94 100 99 100 100 100 100 100 100 100 100 100 100 100 100 100 100 100 100 100 99 100 100 100 100 100 100 100 100
41 82 66 42 55 75 78 78 86 90 96 85 80 94 84 83 88 98 86 72 92 100 96 100 100 98 89 100 100 100 100 100 100 100 100 100 100 100 100 100 100 100 100 100 100 100 100 100 100 100 100 100 100 100
73 52 70 38 10 19 26 46 78 89 97 100 98 93 91 88 76 76 95 97 95 99 100 100 100 100 100 100 100 100 100 100 100 100 100 100 100 100 100 100 100 100 100 100 100 100 99 98 95 100 100 100 100 100